Time,TemperatureF,DewpointF,PressureIn,WindDirection,WindDirectionDegrees,WindSpeedMPH,WindSpeedGustMPH,Humidity,HourlyPrecipIn,Conditions,Clouds,dailyrainin,SoftwareType,DateUTC
2013-07-15 00:08:00,69.1,63.7,29.94,NE,45,3.1,5.4,83,0.00,,,0.00,pywws,2013-07-14 14:08:00,
2013-07-15 00:19:00,69.6,63.5,29.93,SSW,202,2.2,3.8,81,0.00,,,0.00,pywws,2013-07-14 14:19:00,
2013-07-15 00:29:00,69.4,63.3,29.93,NE,45,2.2,3.1,81,0.00,,,0.00,pywws,2013-07-14 14:29:00,
2013-07-15 00:39:00,69.6,63.5,29.93,NNE,22,4.5,6.0,81,0.00,,,0.00,pywws,2013-07-14 14:39:00,
2013-07-15 00:49:00,69.8,63.3,29.93,NE,45,1.6,2.2,80,0.00,,,0.00,pywws,2013-07-14 14:49:00,
2013-07-15 00:58:00,69.6,63.9,29.93,North,0,3.8,4.5,82,0.00,,,0.00,pywws,2013-07-14 14:58:00,
2013-07-15 01:08:00,69.4,64.0,29.93,NNW,338,7.6,12.1,83,0.00,,,0.00,pywws,2013-07-14 15:08:00,
2013-07-15 01:18:00,68.5,64.2,29.92,NE,45,3.8,5.4,86,0.00,,,0.00,pywws,2013-07-14 15:18:00,
2013-07-15 01:29:00,68.4,64.3,29.93,NE,45,3.8,4.5,87,0.00,,,0.00,pywws,2013-07-14 15:29:00,
2013-07-15 01:39:00,68.4,64.0,29.93,NE,45,2.2,6.0,86,0.00,,,0.00,pywws,2013-07-14 15:39:00,
2013-07-15 01:49:00,68.2,64.2,29.93,North,0,4.5,5.4,87,0.00,,,0.00,pywws,2013-07-14 15:49:00,
2013-07-15 01:59:00,68.0,64.3,29.92,NE,45,1.6,3.8,88,0.02,,,0.02,pywws,2013-07-14 15:59:00,
2013-07-15 02:08:00,67.3,64.6,29.91,North,0,0.7,2.2,91,0.02,,,0.02,pywws,2013-07-14 16:08:00,
2013-07-15 02:19:00,67.6,64.9,29.91,NE,45,2.2,3.8,91,0.02,,,0.02,pywws,2013-07-14 16:19:00,
2013-07-15 02:29:00,67.3,64.9,29.91,SE,135,0.7,2.2,92,0.04,,,0.04,pywws,2013-07-14 16:29:00,
2013-07-15 02:38:00,67.5,65.1,29.91,NE,45,1.6,3.8,92,0.04,,,0.04,pywws,2013-07-14 16:38:00,
2013-07-15 02:49:00,67.3,64.9,29.91,NE,45,0.7,1.6,92,0.04,,,0.04,pywws,2013-07-14 16:49:00,
2013-07-15 02:58:00,67.3,65.2,29.90,NE,45,3.8,6.9,93,0.01,,,0.04,pywws,2013-07-14 16:58:00,
2013-07-15 03:08:00,67.3,65.2,29.90,NE,45,0.7,3.1,93,0.01,,,0.04,pywws,2013-07-14 17:08:00,
2013-07-15 03:19:00,67.3,64.9,29.90,NE,45,0.0,1.6,92,0.01,,,0.04,pywws,2013-07-14 17:19:00,
2013-07-15 03:29:00,67.3,64.9,29.90,North,0,1.6,3.1,92,0.00,,,0.04,pywws,2013-07-14 17:29:00,
2013-07-15 03:39:00,66.9,64.5,29.89,NE,45,2.2,3.8,92,0.00,,,0.04,pywws,2013-07-14 17:39:00,
2013-07-15 03:49:00,66.9,64.5,29.90,NE,45,2.2,3.1,92,0.00,,,0.04,pywws,2013-07-14 17:49:00,
2013-07-15 03:59:00,67.3,64.6,29.90,South,180,0.0,0.7,91,0.00,,,0.04,pywws,2013-07-14 17:59:00,
2013-07-15 04:08:00,66.9,64.5,29.90,NE,45,2.2,4.5,92,0.00,,,0.04,pywws,2013-07-14 18:08:00,
2013-07-15 04:18:00,67.6,64.6,29.89,NE,45,0.7,3.8,90,0.00,,,0.04,pywws,2013-07-14 18:18:00,
2013-07-15 04:29:00,68.0,64.6,29.90,East,90,0.7,1.6,89,0.00,,,0.04,pywws,2013-07-14 18:29:00,
2013-07-15 04:38:00,67.6,64.6,29.89,NE,45,0.0,0.7,90,0.00,,,0.04,pywws,2013-07-14 18:38:00,
2013-07-15 04:49:00,67.6,64.0,29.90,East,90,3.8,5.4,88,0.00,,,0.04,pywws,2013-07-14 18:49:00,
2013-07-15 04:59:00,67.6,64.0,29.90,East,90,0.0,1.6,88,0.00,,,0.04,pywws,2013-07-14 18:59:00,
2013-07-15 05:08:00,67.6,64.0,29.90,NNE,22,2.2,6.9,88,0.01,,,0.05,pywws,2013-07-14 19:08:00,
2013-07-15 05:19:00,67.5,63.4,29.90,East,90,2.2,3.8,87,0.01,,,0.05,pywws,2013-07-14 19:19:00,
2013-07-15 05:29:00,67.3,63.6,29.91,North,0,1.6,4.5,88,0.01,,,0.05,pywws,2013-07-14 19:29:00,
2013-07-15 05:38:00,67.6,63.6,29.91,NE,45,0.7,1.6,87,0.01,,,0.05,pywws,2013-07-14 19:38:00,
2013-07-15 05:49:00,68.2,63.2,29.91,North,0,0.7,2.2,84,0.01,,,0.05,pywws,2013-07-14 19:49:00,
2013-07-15 05:58:00,68.4,63.0,29.91,NE,45,4.5,8.3,83,0.01,,,0.05,pywws,2013-07-14 19:58:00,
2013-07-15 06:08:00,68.2,63.2,29.91,NE,45,3.1,6.9,84,0.00,,,0.05,pywws,2013-07-14 20:08:00,
2013-07-15 06:20:00,68.2,63.2,29.91,NNE,22,3.8,5.4,84,0.00,,,0.05,pywws,2013-07-14 20:20:00,
2013-07-15 06:29:00,68.2,63.2,29.92,SE,135,1.6,3.1,84,0.00,,,0.05,pywws,2013-07-14 20:29:00,
2013-07-15 06:40:00,68.2,63.5,29.92,NE,45,1.6,2.2,85,0.00,,,0.05,pywws,2013-07-14 20:40:00,
2013-07-15 06:49:00,68.4,63.7,29.92,NE,45,3.1,6.0,85,0.00,,,0.05,pywws,2013-07-14 20:49:00,
2013-07-15 06:51:00,68.4,63.7,29.92,North,0,3.8,5.4,85,0.00,,,0.05,pywws,2013-07-14 20:51:00,
2013-07-15 07:00:00,68.5,63.5,29.92,South,180,0.0,0.0,84,0.00,,,0.05,pywws,2013-07-14 21:00:00,
2013-07-15 07:09:00,68.5,63.5,29.92,NE,45,2.2,3.8,84,0.00,,,0.05,pywws,2013-07-14 21:09:00,
2013-07-15 07:20:00,69.1,64.0,29.93,ENE,68,3.1,6.0,84,0.00,,,0.05,pywws,2013-07-14 21:20:00,
2013-07-15 07:29:00,69.6,64.2,29.93,West,270,1.6,2.2,83,0.00,,,0.05,pywws,2013-07-14 21:29:00,
2013-07-15 07:40:00,70.3,64.2,29.93,NE,45,2.2,3.8,81,0.00,,,0.05,pywws,2013-07-14 21:40:00,
2013-07-15 07:49:00,71.8,63.8,29.93,NNE,22,3.1,4.5,76,0.00,,,0.05,pywws,2013-07-14 21:49:00,
2013-07-15 08:00:00,72.3,64.3,29.93,North,0,3.8,5.4,76,0.00,,,0.05,pywws,2013-07-14 22:00:00,
2013-07-15 08:09:00,71.8,64.2,29.94,NE,45,3.1,5.4,77,0.00,,,0.05,pywws,2013-07-14 22:09:00,
2013-07-15 08:20:00,74.5,66.0,29.94,East,90,3.8,6.0,75,0.00,,,0.05,pywws,2013-07-14 22:20:00,
2013-07-15 08:29:00,74.1,65.7,29.94,NE,45,4.5,8.3,75,0.00,,,0.05,pywws,2013-07-14 22:29:00,
2013-07-15 08:40:00,72.5,64.5,29.95,North,0,3.1,5.4,76,0.00,,,0.05,pywws,2013-07-14 22:40:00,
2013-07-15 08:49:00,71.8,66.0,29.96,NNE,22,2.2,3.8,82,0.01,,,0.06,pywws,2013-07-14 22:49:00,
2013-07-15 09:00:00,73.4,66.1,29.95,SW,225,2.2,4.5,78,0.01,,,0.06,pywws,2013-07-14 23:00:00,
2013-07-15 09:09:00,73.0,65.8,29.96,NE,45,5.4,6.9,78,0.01,,,0.06,pywws,2013-07-14 23:09:00,
2013-07-15 09:14:00,71.8,65.6,29.96,North,0,3.8,6.0,81,0.01,,,0.06,pywws,2013-07-14 23:14:00,
2013-07-15 09:20:00,72.0,66.2,29.96,NE,45,3.1,6.9,82,0.01,,,0.06,pywws,2013-07-14 23:20:00,
2013-07-15 09:29:00,74.1,67.2,29.96,East,90,3.8,6.9,79,0.01,,,0.06,pywws,2013-07-14 23:29:00,
2013-07-15 09:40:00,74.1,66.8,29.95,NE,45,4.5,6.0,78,0.01,,,0.06,pywws,2013-07-14 23:40:00,
2013-07-15 09:49:00,73.8,66.1,29.96,North,0,6.0,10.7,77,0.00,,,0.06,pywws,2013-07-14 23:49:00,
2013-07-15 10:00:00,73.6,66.7,29.96,North,0,4.5,9.8,79,0.00,,,0.06,pywws,2013-07-15 00:00:00,
2013-07-15 10:09:00,71.4,66.0,29.96,NE,45,6.0,9.8,83,0.00,,,0.06,pywws,2013-07-15 00:09:00,
2013-07-15 10:20:00,70.3,66.3,29.96,NE,45,3.1,5.4,87,0.00,,,0.06,pywws,2013-07-15 00:20:00,
2013-07-15 10:29:00,72.3,67.5,29.95,NE,45,3.8,8.3,85,0.00,,,0.06,pywws,2013-07-15 00:29:00,
2013-07-15 10:40:00,74.8,68.6,29.95,NE,45,4.5,9.8,81,0.01,,,0.07,pywws,2013-07-15 00:40:00,
2013-07-15 10:49:00,76.6,67.7,29.95,NE,45,3.8,7.6,74,0.01,,,0.07,pywws,2013-07-15 00:49:00,
2013-07-15 11:00:00,77.5,67.4,29.95,North,0,6.9,10.7,71,0.01,,,0.07,pywws,2013-07-15 01:00:00,
2013-07-15 11:09:00,75.9,66.6,29.94,NE,45,3.1,5.4,73,0.01,,,0.07,pywws,2013-07-15 01:09:00,
2013-07-15 11:20:00,72.0,66.2,29.96,NE,45,3.1,7.6,82,0.01,,,0.07,pywws,2013-07-15 01:20:00,
2013-07-15 11:29:00,71.8,66.3,29.95,North,0,4.5,6.9,83,0.01,,,0.07,pywws,2013-07-15 01:29:00,
2013-07-15 11:40:00,74.7,67.7,29.94,NE,45,5.4,6.9,79,0.00,,,0.07,pywws,2013-07-15 01:40:00,
2013-07-15 11:49:00,77.2,68.2,29.94,North,0,6.0,9.8,74,0.00,,,0.07,pywws,2013-07-15 01:49:00,
2013-07-15 12:00:00,77.9,68.5,29.92,West,270,2.2,6.0,73,0.00,,,0.07,pywws,2013-07-15 02:00:00,
2013-07-15 12:09:00,78.4,67.8,29.92,NE,45,2.2,6.0,70,0.00,,,0.07,pywws,2013-07-15 02:09:00,
2013-07-15 12:10:00,78.6,68.0,29.92,North,0,4.5,7.6,70,0.00,,,0.07,pywws,2013-07-15 02:10:00,
2013-07-15 12:20:00,80.6,67.3,29.92,NE,45,3.8,5.4,64,0.00,,,0.07,pywws,2013-07-15 02:20:00,
2013-07-15 12:29:00,79.3,67.0,29.92,NE,45,6.9,9.2,66,0.00,,,0.07,pywws,2013-07-15 02:29:00,
2013-07-15 12:40:00,77.4,66.4,29.91,NE,45,3.1,6.0,69,0.00,,,0.07,pywws,2013-07-15 02:40:00,
2013-07-15 12:49:00,77.0,66.4,29.91,NE,45,5.4,6.9,70,0.00,,,0.07,pywws,2013-07-15 02:49:00,
2013-07-15 13:00:00,78.6,67.6,29.90,North,0,1.6,4.5,69,0.00,,,0.07,pywws,2013-07-15 03:00:00,
2013-07-15 13:09:00,82.8,68.9,29.90,NE,45,5.4,6.9,63,0.00,,,0.07,pywws,2013-07-15 03:09:00,
2013-07-15 13:20:00,79.3,67.0,29.89,NE,45,1.6,2.2,66,0.00,,,0.07,pywws,2013-07-15 03:20:00,
2013-07-15 13:29:00,79.2,67.2,29.88,North,0,3.1,5.4,67,0.00,,,0.07,pywws,2013-07-15 03:29:00,
2013-07-15 13:40:00,78.8,66.5,29.88,NE,45,6.0,9.2,66,0.00,,,0.07,pywws,2013-07-15 03:40:00,
2013-07-15 13:49:00,79.9,66.6,29.88,NE,45,3.1,6.0,64,0.00,,,0.07,pywws,2013-07-15 03:49:00,
2013-07-15 14:00:00,78.4,67.0,29.87,NE,45,4.5,5.4,68,0.00,,,0.07,pywws,2013-07-15 04:00:00,
2013-07-15 14:01:00,78.3,66.8,29.87,NE,45,4.5,6.0,68,0.00,,,0.07,pywws,2013-07-15 04:01:00,
2013-07-15 14:02:00,78.3,66.4,29.87,NE,45,8.3,10.7,67,0.00,,,0.07,pywws,2013-07-15 04:02:00,
2013-07-15 14:03:00,78.3,66.4,29.87,North,0,8.3,12.1,67,0.00,,,0.07,pywws,2013-07-15 04:03:00,
2013-07-15 14:09:00,76.5,67.1,29.87,NE,45,4.5,9.8,73,0.01,,,0.08,pywws,2013-07-15 04:09:00,
2013-07-15 14:20:00,74.5,67.5,29.87,NW,315,3.8,6.9,79,0.01,,,0.08,pywws,2013-07-15 04:20:00,
2013-07-15 14:29:00,75.9,68.9,29.86,South,180,0.0,0.7,79,0.01,,,0.08,pywws,2013-07-15 04:29:00,
2013-07-15 14:40:00,75.6,67.4,29.86,South,180,0.0,1.6,76,0.01,,,0.08,pywws,2013-07-15 04:40:00,
2013-07-15 14:49:00,75.9,67.0,29.86,South,180,1.6,4.5,74,0.01,,,0.08,pywws,2013-07-15 04:49:00,
2013-07-15 15:00:00,73.8,67.2,29.87,NE,45,2.2,3.1,80,0.06,,,0.13,pywws,2013-07-15 05:00:00,
2013-07-15 15:09:00,71.6,66.2,29.87,NE,45,2.2,5.4,83,0.05,,,0.13,pywws,2013-07-15 05:09:00,
2013-07-15 15:20:00,72.7,67.6,29.87,NE,45,1.6,3.1,84,0.05,,,0.13,pywws,2013-07-15 05:20:00,
2013-07-15 15:29:00,73.4,68.6,29.87,NE,45,1.6,2.2,85,0.05,,,0.13,pywws,2013-07-15 05:29:00,
2013-07-15 15:40:00,71.2,66.5,29.88,NE,45,5.4,8.3,85,0.06,,,0.14,pywws,2013-07-15 05:40:00,
2013-07-15 15:49:00,70.3,66.3,29.88,North,0,0.0,1.6,87,0.06,,,0.14,pywws,2013-07-15 05:49:00,
2013-07-15 16:00:00,70.3,66.3,29.88,West,270,0.7,1.6,87,0.01,,,0.14,pywws,2013-07-15 06:00:00,
2013-07-15 16:09:00,70.7,66.6,29.87,NE,45,2.2,3.8,87,0.01,,,0.14,pywws,2013-07-15 06:09:00,
2013-07-15 16:20:00,70.3,65.6,29.87,SE,135,0.0,0.7,85,0.01,,,0.14,pywws,2013-07-15 06:20:00,
2013-07-15 16:30:00,70.3,65.3,29.88,NE,45,1.6,3.1,84,0.01,,,0.14,pywws,2013-07-15 06:30:00,
2013-07-15 16:40:00,70.7,65.6,29.88,NE,45,0.7,1.6,84,0.00,,,0.14,pywws,2013-07-15 06:40:00,
2013-07-15 16:49:00,71.1,66.0,29.88,SW,225,0.0,0.7,84,0.00,,,0.14,pywws,2013-07-15 06:49:00,
2013-07-15 17:00:00,71.1,66.0,29.88,NE,45,0.0,0.7,84,0.00,,,0.14,pywws,2013-07-15 07:00:00,
2013-07-15 17:09:00,71.1,66.0,29.88,NE,45,0.7,3.1,84,0.00,,,0.14,pywws,2013-07-15 07:09:00,
2013-07-15 17:20:00,71.1,65.6,29.88,West,270,1.6,2.2,83,0.00,,,0.14,pywws,2013-07-15 07:20:00,
2013-07-15 17:29:00,70.9,65.5,29.88,NNE,22,1.6,3.1,83,0.01,,,0.15,pywws,2013-07-15 07:29:00,
2013-07-15 17:40:00,70.7,65.3,29.88,East,90,1.6,3.1,83,0.01,,,0.15,pywws,2013-07-15 07:40:00,
2013-07-15 17:49:00,70.3,64.9,29.89,NE,45,3.1,5.4,83,0.01,,,0.15,pywws,2013-07-15 07:49:00,
2013-07-15 18:00:00,70.3,64.6,29.89,NE,45,0.7,3.1,82,0.01,,,0.15,pywws,2013-07-15 08:00:00,
2013-07-15 18:09:00,70.3,64.2,29.89,West,270,1.6,2.2,81,0.01,,,0.15,pywws,2013-07-15 08:09:00,
2013-07-15 18:20:00,70.7,64.6,29.89,SE,135,2.2,4.5,81,0.01,,,0.15,pywws,2013-07-15 08:20:00,
2013-07-15 18:29:00,70.7,64.2,29.90,North,0,0.7,2.2,80,0.00,,,0.15,pywws,2013-07-15 08:29:00,
2013-07-15 18:40:00,70.9,64.4,29.90,NE,45,0.7,1.6,80,0.00,,,0.15,pywws,2013-07-15 08:40:00,
2013-07-15 18:49:00,70.9,64.0,29.91,NE,45,4.5,6.9,79,0.00,,,0.15,pywws,2013-07-15 08:49:00,
2013-07-15 19:00:00,70.7,64.2,29.91,East,90,2.2,3.8,80,0.00,,,0.15,pywws,2013-07-15 09:00:00,
2013-07-15 19:09:00,69.8,64.4,29.91,NW,315,0.7,2.2,83,0.00,,,0.15,pywws,2013-07-15 09:09:00,
2013-07-15 19:20:00,69.1,64.7,29.92,SE,135,2.2,4.5,86,0.00,,,0.15,pywws,2013-07-15 09:20:00,
2013-07-15 19:29:00,69.3,64.6,29.92,NW,315,2.2,3.1,85,0.00,,,0.15,pywws,2013-07-15 09:29:00,
2013-07-15 19:40:00,69.6,64.9,29.92,SE,135,0.7,2.2,85,0.00,,,0.15,pywws,2013-07-15 09:40:00,
2013-07-15 19:49:00,69.8,64.7,29.92,NW,315,1.6,2.2,84,0.00,,,0.15,pywws,2013-07-15 09:49:00,
2013-07-15 20:00:00,69.6,64.9,29.93,NE,45,1.6,2.2,85,0.00,,,0.15,pywws,2013-07-15 10:00:00,
2013-07-15 20:09:00,69.3,64.9,29.93,NE,45,0.7,3.1,86,0.00,,,0.15,pywws,2013-07-15 10:09:00,
2013-07-15 20:14:00,69.3,64.9,29.93,North,0,3.8,5.4,86,0.00,,,0.15,pywws,2013-07-15 10:14:00,
2013-07-15 20:20:00,69.3,64.9,29.93,NNE,22,0.7,2.2,86,0.00,,,0.15,pywws,2013-07-15 10:20:00,
2013-07-15 20:29:00,69.8,64.7,29.94,NW,315,1.6,3.1,84,0.00,,,0.15,pywws,2013-07-15 10:29:00,
2013-07-15 20:40:00,70.3,64.6,29.94,NE,45,3.8,5.4,82,0.00,,,0.15,pywws,2013-07-15 10:40:00,
2013-07-15 20:49:00,70.2,64.4,29.94,East,90,0.0,0.7,82,0.00,,,0.15,pywws,2013-07-15 10:49:00,
2013-07-15 21:00:00,70.3,64.6,29.94,NE,45,1.6,3.1,82,0.00,,,0.15,pywws,2013-07-15 11:00:00,
2013-07-15 21:09:00,70.3,64.6,29.95,NE,45,2.2,5.4,82,0.00,,,0.15,pywws,2013-07-15 11:09:00,
2013-07-15 21:20:00,70.3,64.6,29.94,SE,135,3.1,5.4,82,0.00,,,0.15,pywws,2013-07-15 11:20:00,
2013-07-15 21:29:00,70.3,64.6,29.95,South,180,0.7,2.2,82,0.00,,,0.15,pywws,2013-07-15 11:29:00,
2013-07-15 21:40:00,70.3,64.6,29.95,NW,315,0.0,0.7,82,0.00,,,0.15,pywws,2013-07-15 11:40:00,
2013-07-15 21:49:00,70.5,64.8,29.95,NE,45,3.8,5.4,82,0.00,,,0.15,pywws,2013-07-15 11:49:00,
2013-07-15 22:00:00,70.7,64.9,29.95,NE,45,2.2,3.8,82,0.00,,,0.15,pywws,2013-07-15 12:00:00,
2013-07-15 22:09:00,70.7,64.6,29.95,NE,45,4.5,6.9,81,0.00,,,0.15,pywws,2013-07-15 12:09:00,
2013-07-15 22:20:00,70.5,64.0,29.94,North,0,0.7,1.6,80,0.00,,,0.15,pywws,2013-07-15 12:20:00,
2013-07-15 22:29:00,70.3,63.9,29.94,SW,225,2.2,3.8,80,0.00,,,0.15,pywws,2013-07-15 12:29:00,
2013-07-15 22:40:00,70.3,63.9,29.94,NE,45,1.6,5.4,80,0.00,,,0.15,pywws,2013-07-15 12:40:00,
2013-07-15 22:49:00,70.3,63.9,29.94,North,0,1.6,2.2,80,0.00,,,0.15,pywws,2013-07-15 12:49:00,
2013-07-15 23:00:00,70.2,64.0,29.93,NE,45,1.6,3.1,81,0.00,,,0.15,pywws,2013-07-15 13:00:00,
2013-07-15 23:09:00,70.3,63.9,29.93,West,270,0.7,1.6,80,0.00,,,0.15,pywws,2013-07-15 13:09:00,
2013-07-15 23:20:00,70.0,64.2,29.93,NE,45,3.1,6.0,82,0.00,,,0.15,pywws,2013-07-15 13:20:00,
2013-07-15 23:29:00,69.8,64.0,29.93,NE,45,4.5,7.6,82,0.00,,,0.15,pywws,2013-07-15 13:29:00,
2013-07-15 23:40:00,70.0,64.2,29.94,NE,45,5.4,7.6,82,0.00,,,0.15,pywws,2013-07-15 13:40:00,
2013-07-15 23:49:00,69.4,64.4,29.93,East,90,0.7,2.2,84,0.00,,,0.15,pywws,2013-07-15 13:49:00,